Location: Unspecified
(0.0000°N, 0.0000°E)
Time: 00:00:20
(UTC+00:00)

STARLINK-1054 - Pass Details

Date: 20 January 2020
Orbit: 546 x 548 km, 53.1° (Epoch: 15 January)

Event Time Altitude Azimuth Distance (km) Brightness Sun altitude
Rises 05:04:12 0° 200° (SSW) 2,709 7.2 -15.6°
Reaches altitude 10° 05:06:35 10° 191° (S) 1,813 6.4 -15.0°
Maximum altitude 05:10:21 35° 124° (SE) 894 5.4 -14.2°
Drops below altitude 10° 05:14:06 10° 58° (ENE) 1,804 6.8 -13.3°
Sets 05:16:27 0° 49° (NE) 2,693 7.5 -12.7°
